Orbital Elements at Epoch 2459200.5 (2020-Dec-17.0) TDB
Reference: JPL 33 (heliocentric ecliptic J2000)
Element | Value | Uncertainty (1-sigma) | Units |
e | .07972470539473685 | 2.1122e-08 | |
a | 2.9932408659907 | 1.4222e-08 | au |
q | 2.754605619774104 | 6.7231e-08 | au |
i | 9.016382926242821 | 7.476e-07 | deg |
node | 333.1756756161035 | 4.0303e-06 | deg |
peri | 66.30511947038232 | 1.6871e-05 | deg |
M | 345.0864207614241 | 1.4009e-05 | deg |
tp | 2459278.859257294594 (2021-Mar-05.35925729) | 7.3462e-05 | TDB |
period | 1891.519948013992 5.18 | 1.3481e-05 3.691e-08 | d yr |
n | .1903231316053437 | 1.3564e-09 | deg/d |
Q | 3.231876112207295 | 1.5356e-08 | au |
|
| | Orbit Determination Parameters
Additional Information
|